SCP
0 1 1 1 1 0 0 0 0 0 1 1 2 3 3 4 3 2 2 2 2 3 3 3 4 3 3 3 3 4 4 3 3 3 2 2 2 2 2 2 2 2 2 2 2 2 2 1 1
1 1 1 1 1 0 0 0 0 1 1 2 2 3 3 4 3 2 2 2 2 2 3 3 4 4 3 3 4 4 4 3 3 3 3 2 2 2 2 2 2 2 2 2 2 2 2 1 1
1 1 1 1 1 0 0 0 1 1 1 2 2 2 3 4 3 2 2 2 2 2 2 3 4 4 4 4 4 4 4 3 3 3 3 3 3 2 2 2 2 2 1 1 1 2 2 1 1
0 1 1 1 1 0 0 0 1 1 2 2 2 2 2 3 3 2 1 2 2 2 2 3 4 4 4 4 4 4 4 3 4 4 4 3 3 3 2 2 2 2 1 1 1 1 1 1 1
0 1 1 1 1 0 0 0 1 1 2 2 2 2 2 2 2 1 2 3 3 2 2 3 3 3 3 4 4 4 4 4 4 4 4 3 3 3 3 2 2 2 1 1 1 1 1 1 1
0 1 1 1 1 0 1 1 1 1 2 2 2 2 2 2 1 1 2 3 3 2 2 2 3 3 3 4 4 4 4 4 4 4 4 3 3 2 2 2 2 2 2 1 1 2 2 1 1
0 0 0 0 1 1 1 1 1 2 2 2 2 2 2 1 1 2 2 3 3 2 2 2 2 3 3 4 4 4 4 4 4 4 4 3 3 2 2 2 2 2 2 2 2 2 2 2 2
0 0 0 0 0 1 1 1 1 2 2 2 2 2 2 1 2 2 3 3 3 2 2 2 2 2 3 3 4 4 4 4 4 4 4 3 3 2 2 2 2 2 2 2 1 2 2 2 2
0 0 0 0 0 1 1 1 1 2 2 2 2 2 2 2 3 3 3 3 3 2 2 2 3 2 2 3 4 4 4 4 4 4 4 3 3 2 2 2 2 2 2 1 1 1 1 1 1
0 0 0 0 1 1 1 1 1 2 2 2 2 2 2 3 3 3 3 3 2 2 2 2 2 3 3 3 3 4 4 4 4 4 3 3 2 2 2 2 2 2 2 2 1 1 1 1 1
0 0 0 1 1 1 1 1 2 2 2 1 2 2 3 3 3 3 3 2 2 2 2 2 2 3 3 3 3 3 3 4 4 4 3 3 2 2 2 1 1 2 2 2 2 1 1 1 1
0 0 1 1 1 1 1 1 1 2 2 2 2 3 3 3 3 3 2 2 2 2 2 2 2 3 3 4 3 3 3 3 4 4 3 3 2 2 2 1 1 1 1 1 2 2 2 2 2
1 1 1 1 1 1 1 1 1 2 2 2 2 3 3 3 3 3 2 2 2 3 3 3 3 3 3 3 3 3 3 3 3 3 3 3 3 2 2 2 1 1 1 1 2 2 2 2 2
1 1 1 1 1 1 1 2 2 2 2 2 3 3 3 3 3 3 3 3 3 3 3 4 4 4 3 3 3 3 4 4 4 3 3 3 3 2 2 2 2 1 1 2 1 1 2 2 2
1 1 1 1 1 1 2 2 2 2 2 2 3 3 3 3 3 3 4 4 3 3 4 4 5 4 3 3 4 4 5 5 5 4 4 3 3 2 2 2 2 1 1 1 1 1 1 1 1
0 0 0 1 1 1 1 2 2 2 3 3 3 3 3 3 3 3 4 5 4 4 4 5 5 4 4 4 4 5 6 6 6 5 5 4 3 2 2 2 2 1 1 1 1 1 1 1 1
0 0 0 1 1 1 1 1 1 2 3 4 4 4 3 3 2 2 3 4 5 5 5 5 5 4 4 4 5 5 6 6 7 6 5 4 3 2 2 2 2 1 1 1 1 1 1 1 1
0 0 0 0 0 1 1 1 2 2 3 4 3 3 3 2 2 2 2 3 5 6 6 5 5 5 5 5 5 5 5 5 6 6 5 4 3 2 2 2 2 2 1 1 1 1 1 1 1
0 0 0 0 1 1 1 1 2 3 3 3 3 3 3 3 2 2 2 2 4 5 5 4 4 5 6 7 7 6 4 4 5 5 5 3 2 2 2 2 2 2 1 1 1 1 1 1 1
0 0 0 0 1 1 1 1 2 2 3 3 3 3 3 2 2 2 2 2 3 5 5 4 4 4 6 7 8 7 4 3 3 3 3 3 2 2 2 2 1 1 1 1 1 1 1 1 1
0 0 0 0 1 1 1 1 1 2 2 2 2 2 2 2 2 2 2 2 2 4 4 4 3 4 4 6 7 6 5 3 2 2 2 2 2 2 1 1 1 1 1 1 1 1 1 1 1
0 0 0 0 1 1 1 1 1 1 1 1 2 2 2 2 1 1 1 1 1 2 4 4 4 4 4 4 4 4 4 3 2 1 1 2 2 1 1 1 0 1 1 1 1 1 1 1 1
0 0 0 0 0 0 0 0 0 1 1 1 1 2 2 2 1 1 1 1 1 2 3 4 5 4 4 3 2 2 2 2 2 2 2 1 1 1 1 1 0 0 1 1 1 0 0 0 0
0 0 0 0 0 0 0 0 0 0 1 1 1 2 2 1 1 1 1 1 1 1 3 5 5 5 4 3 2 1 1 1 2 2 2 2 2 1 1 1 1 1 1 1 1 0 0 0 0
0 0 0 0 0 0 0 0 0 0 0 1 1 2 2 1 1 1 1 1 1 1 2 4 5 5 5 4 3 2 2 2 2 2 2 2 2 2 2 2 2 1 1 1 1 1 0 0 0
0 0 0 0 0 0 1 1 1 0 0 1 1 2 2 1 1 1 1 1 1 1 2 3 4 5 5 5 4 3 3 3 3 3 2 2 2 2 2 2 2 2 2 1 1 1 1 0 0
0 0 0 0 0 1 1 1 0 0 0 1 1 1 1 1 1 1 1 1 1 1 1 2 2 3 4 4 4 4 4 4 4 3 3 2 2 1 2 2 2 2 2 2 2 1 1 1 1
0 0 0 0 1 1 1 1 0 0 0 0 1 1 1 1 1 0 0 0 0 1 1 1 1 2 2 3 3 4 4 4 4 4 4 3 2 1 1 2 2 3 3 3 3 3 2 2 1
0 0 0 0 0 1 1 0 0 0 0 0 1 1 1 1 0 0 0 0 0 0 0 0 0 1 1 1 2 2 3 4 4 4 4 3 2 2 1 2 2 3 3 3 4 4 3 3 2
0 0 0 0 0 0 0 1 1 0 0 1 1 1 1 1 0 0 0 0 0 0 0 0 0 0 0 0 1 1 3 4 4 3 3 3 3 2 1 2 2 3 3 4 4 3 3 3 2
Wind_Speed
1 1 2 2 5 5 1 3 2 2 2 1 2 3 3 2 2 2 0 8 10 10 9 12 13 13 14 13 13 13 13 13 13 13 13 13 12 12 11 11 10 10 9 8 7 6 6 5 4
1 1 3 4 5 2 3 3 3 2 1 1 2 3 3 0 1 3 3 6 10 10 9 10 13 13 13 13 13 13 13 13 12 11 11 12 11 11 10 10 9 9 8 7 7 6 5 4 4
1 2 4 4 3 3 3 3 2 2 1 1 2 2 1 0 2 3 4 9 9 8 7 9 14 14 13 13 13 13 12 13 12 10 10 10 10 10 9 9 8 7 7 6 6 5 5 4 4
2 4 5 4 1 4 4 3 1 2 2 2 2 2 1 1 2 4 9 11 10 8 7 8 14 14 13 13 13 12 12 12 11 10 10 10 9 9 8 8 7 6 6 5 5 4 4 4 4
4 5 5 2 3 4 4 3 1 2 1 1 2 1 1 2 4 9 10 11 10 8 6 7 12 12 12 12 12 11 11 11 11 10 9 9 8 8 7 7 6 6 5 5 5 4 4 3 4
5 5 4 1 4 4 3 1 0 1 1 1 3 2 1 2 5 8 9 8 8 8 6 6 11 12 11 11 10 10 10 10 9 9 8 8 7 7 6 6 5 5 5 4 4 4 4 4 4
5 4 3 2 2 4 2 1 1 1 1 1 3 3 1 2 4 7 7 7 7 6 5 4 5 7 9 10 9 9 9 9 8 8 8 7 7 6 6 6 5 5 4 4 4 4 4 4 4
5 5 1 1 2 4 2 0 1 1 1 0 3 4 3 3 7 7 7 6 6 5 4 3 3 3 3 4 8 9 9 8 8 8 7 7 6 6 6 5 5 4 4 4 4 3 4 3 4
4 5 1 4 4 4 2 1 1 1 1 1 1 2 3 9 10 9 7 5 4 4 3 3 2 2 2 2 5 5 6 6 5 5 6 5 2 2 3 4 4 4 4 4 3 3 4 4 4
4 3 5 5 4 3 2 1 1 1 1 1 2 4 8 10 10 9 7 6 5 4 3 3 2 2 2 3 2 1 2 2 2 1 2 1 1 1 2 2 4 3 3 4 4 4 3 3 2
4 5 4 3 4 3 1 1 1 3 1 2 4 6 8 9 8 7 6 5 5 4 3 3 3 3 2 1 1 1 1 1 2 2 2 1 1 1 1 0 1 2 2 2 2 3 2 2 2
3 4 3 3 2 1 2 1 2 1 3 2 5 8 9 8 7 7 6 4 3 3 3 2 2 3 3 2 1 1 1 1 2 2 2 2 1 1 1 1 1 1 1 1 1 1 2 2 3
2 3 1 2 2 0 2 2 2 1 1 4 8 9 9 7 5 3 3 3 3 2 2 2 2 2 2 2 2 2 2 2 2 1 2 2 2 2 1 1 1 1 1 1 2 2 2 2 3
3 2 2 3 1 1 4 2 2 2 2 6 8 8 7 6 5 4 3 2 2 2 2 2 2 2 2 2 2 2 2 1 1 1 1 2 2 2 2 2 2 2 2 2 2 2 2 2 2
1 2 4 3 2 1 4 4 2 1 5 7 7 6 6 4 4 3 2 1 2 1 1 1 1 2 2 2 2 2 2 1 1 1 1 2 2 2 2 2 2 2 2 2 1 1 1 1 2
3 4 3 5 3 2 5 1 3 2 6 6 5 5 4 3 3 2 2 1 1 1 1 1 1 1 1 1 1 1 1 1 1 1 0 1 2 2 2 1 1 1 1 1 1 1 1 1 2
5 2 2 5 3 2 4 1 2 3 6 5 4 3 3 2 3 2 1 1 1 1 1 1 1 1 1 0 0 1 1 1 1 1 1 1 1 2 2 1 1 1 0 1 1 0 1 1 2
2 1 2 3 2 3 4 2 3 3 4 3 2 2 2 1 0 1 1 1 2 1 1 1 1 1 1 1 1 1 1 0 0 1 1 1 1 1 1 1 1 1 0 0 0 1 1 1 2
2 1 2 3 1 3 4 3 2 3 3 2 1 1 1 0 0 1 1 1 2 2 2 1 1 1 1 1 0 0 1 1 1 0 1 1 1 1 2 1 1 1 1 1 1 1 1 1 1
1 1 1 2 1 3 4 2 2 2 2 2 2 1 0 1 2 1 1 1 1 1 1 1 1 0 1 1 1 1 1 1 1 1 1 1 1 1 1 1 1 1 1 0 0 0 0 1 1
1 3 3 3 2 3 3 2 2 2 2 2 1 1 1 1 1 1 0 0 0 1 1 1 0 1 1 1 1 1 1 1 1 1 1 1 1 1 1 1 1 1 1 1 1 1 1 1 0
3 3 3 2 2 1 1 1 3 2 3 2 2 1 1 1 1 1 1 1 1 1 1 1 0 1 1 0 0 0 1 1 1 1 1 2 1 1 1 1 1 1 1 1 2 1 1 1 1
3 2 1 2 3 2 3 2 4 1 3 3 2 2 2 1 2 2 1 1 1 1 1 0 0 1 1 0 1 1 0 0 1 1 1 2 2 2 1 1 1 1 1 2 1 1 1 1 1
1 4 5 5 5 2 2 1 3 1 2 4 3 2 2 1 1 1 1 0 1 1 0 1 0 1 1 1 0 1 1 1 0 1 1 2 2 2 2 1 1 1 1 1 1 1 1 1 2
6 6 5 6 5 3 2 1 4 3 2 2 2 3 2 2 1 1 1 1 1 1 0 0 0 1 1 0 1 1 2 2 1 1 1 2 2 2 3 2 2 1 2 1 1 1 1 2 2
2 5 5 2 3 4 3 1 3 2 2 2 1 2 2 2 1 1 1 2 2 1 0 1 1 2 2 1 1 2 2 1 1 2 1 2 2 3 3 3 2 2 1 1 1 1 1 1 1
3 2 3 5 1 1 3 2 3 2 4 4 4 3 3 3 2 2 2 2 1 1 1 1 1 2 2 2 1 1 1 1 2 2 2 2 2 3 3 2 2 2 2 1 1 1 1 1 1
4 4 4 4 2 2 4 3 3 3 4 4 4 4 4 3 2 2 2 2 1 1 1 1 0 1 2 2 2 1 1 2 2 2 2 2 3 3 3 2 2 2 2 1 1 1 1 1 2
3 4 4 3 3 3 3 5 2 2 2 3 4 4 4 3 3 3 2 2 2 1 1 1 1 1 2 2 2 2 2 2 2 2 3 2 2 3 3 3 2 2 2 1 1 1 1 1 2
2 2 3 2 1 2 2 6 3 1 1 2 4 4 3 2 2 2 2 2 1 1 1 1 1 2 2 1 1 2 2 1 2 2 3 2 2 3 2 3 2 2 2 1 2 2 1 1 2
Wind_Direction
232 113 103 69 58 52 307 279 263 319 344 2 74 103 123 142 173 223 108 137 134 140 149 153 153 150 144 139 135 133 132 129 129 131 134 138 141 144 147 151 154 156 158 161 161 163 165 168 171
129 117 60 61 81 53 288 266 272 274 246 111 76 76 76 83 86 112 128 140 136 142 146 152 153 152 148 143 140 138 136 133 133 137 140 143 145 149 152 155 158 160 163 167 169 172 174 177 180
152 77 80 74 103 179 250 258 248 306 334 77 84 57 84 151 133 157 157 140 133 139 143 156 155 155 152 149 146 144 142 140 142 145 147 148 149 152 156 159 162 166 170 175 178 183 186 187 194
97 52 55 70 223 229 233 265 284 327 359 42 99 58 30 355 159 149 136 138 138 141 145 158 157 158 157 155 153 153 152 149 152 157 156 154 155 157 160 165 170 174 179 185 190 197 199 201 209
64 77 59 20 274 265 254 265 294 292 322 55 100 101 328 357 95 122 135 142 144 142 144 155 158 159 159 159 159 160 160 160 162 164 161 160 161 164 170 174 178 180 187 195 201 203 207 218 227
60 68 81 293 290 287 281 273 228 277 257 129 131 124 296 84 115 133 136 137 142 144 144 151 164 164 163 162 165 165 165 166 166 166 167 167 167 172 180 185 189 192 196 203 211 213 218 227 238
102 99 142 212 281 295 271 209 183 197 209 210 152 135 252 134 133 128 124 125 129 136 141 150 159 166 168 167 167 171 172 171 171 174 177 178 179 186 193 195 199 204 207 212 220 224 226 233 243
123 104 102 246 235 263 272 291 194 164 235 106 131 152 207 161 121 109 105 107 118 129 141 149 148 145 153 166 175 179 178 177 179 182 184 187 191 198 205 205 206 210 220 231 235 237 236 239 244
94 78 198 223 210 246 274 297 316 341 103 68 76 104 115 121 117 111 108 110 128 144 149 152 152 138 141 163 183 180 182 183 186 193 193 191 199 209 219 219 217 220 234 247 248 253 249 245 250
98 137 226 219 204 223 285 240 180 69 28 19 54 73 103 119 127 134 141 149 159 166 167 159 164 152 152 180 169 150 159 159 159 173 181 178 177 214 218 227 221 232 244 254 259 266 264 261 264
156 197 233 254 221 202 238 279 77 124 268 223 173 138 126 127 135 145 152 154 166 164 160 169 174 168 165 176 158 144 153 157 168 182 188 178 166 181 226 236 257 256 255 265 274 272 265 254 248
182 244 223 262 240 180 193 150 87 95 241 177 147 136 132 139 153 162 161 159 156 154 170 155 164 174 177 170 170 165 170 180 196 199 185 171 167 180 214 246 263 253 251 249 252 251 252 250 244
211 270 255 245 285 167 109 106 114 310 342 90 105 113 126 139 147 141 136 143 149 168 182 167 151 163 175 166 176 172 188 196 202 194 191 177 179 192 218 237 241 251 250 249 253 251 256 264 266
237 249 307 318 340 46 105 53 75 278 110 98 102 110 117 132 140 122 119 147 167 180 181 178 164 162 160 167 174 178 183 202 191 198 214 197 187 184 203 225 226 245 252 243 237 235 249 260 262
308 6 351 349 6 4 98 31 316 164 110 103 101 102 101 104 106 118 140 159 192 190 176 151 157 140 160 180 187 183 190 176 186 208 206 198 200 201 201 219 228 235 245 245 241 249 258 268 274
32 39 355 320 4 20 102 236 312 85 111 106 102 101 100 81 87 92 113 141 211 150 122 149 145 134 164 170 161 150 170 158 187 177 186 216 215 197 182 195 235 249 240 230 233 238 266 281 291
28 24 309 315 357 60 100 179 347 68 106 109 109 112 101 80 55 48 105 131 136 130 132 129 113 132 163 161 135 138 148 159 171 147 165 203 217 192 169 188 212 211 202 226 247 241 237 268 288
281 306 298 295 325 76 94 80 30 56 99 114 112 105 98 91 335 1 35 98 107 97 84 84 68 58 97 83 64 57 62 87 160 162 194 194 205 189 165 188 193 170 164 285 276 247 247 251 275
183 190 270 276 279 89 100 86 43 67 90 121 124 106 103 199 286 69 71 94 92 70 63 54 41 336 113 119 130 210 264 272 283 261 227 216 211 181 161 183 188 174 187 233 266 242 281 289 312
161 161 276 304 350 110 114 79 42 77 103 162 144 122 102 7 19 38 51 82 124 134 113 101 71 258 243 215 196 201 209 241 240 272 297 266 225 208 177 170 193 179 168 233 309 106 178 316 33
264 197 217 220 8 48 92 21 354 13 45 51 58 95 114 188 219 236 206 148 83 160 192 201 203 302 305 313 46 53 38 17 2 336 317 308 279 235 202 192 192 192 181 212 237 195 166 232 302
265 252 205 171 120 305 89 241 297 329 347 1 360 344 273 265 248 245 222 224 211 233 237 241 226 313 280 232 121 145 178 237 277 287 292 307 304 282 246 207 187 193 202 214 235 198 193 178 238
244 344 72 95 117 68 32 117 292 345 336 322 306 296 288 275 252 248 230 225 233 234 223 5 4 303 293 196 160 171 251 282 332 349 335 321 312 307 308 261 208 217 224 222 218 215 200 186 199
69 55 51 51 68 49 325 135 287 274 265 303 319 325 327 322 314 309 321 9 334 334 60 86 66 316 330 314 175 166 182 215 22 5 339 325 318 313 312 303 259 236 232 236 237 216 197 197 204
48 64 28 8 13 280 305 122 250 261 254 250 277 300 317 330 330 334 328 311 295 311 353 86 169 298 298 246 206 192 200 210 220 244 278 299 309 300 287 288 274 257 245 238 216 206 216 204 211
48 112 137 199 245 287 334 252 252 295 330 344 340 334 348 345 333 314 292 287 284 277 273 247 267 298 295 267 228 207 200 205 237 246 249 271 271 276 287 287 274 265 254 238 206 226 244 220 230
83 75 150 135 148 315 302 299 306 9 13 7 3 0 337 330 322 303 301 303 298 298 287 256 258 289 286 271 239 229 220 223 245 267 268 271 277 280 293 298 275 265 259 242 195 229 259 248 248
93 128 77 84 94 309 307 295 277 311 327 335 334 320 313 320 320 314 308 310 309 323 330 332 335 293 297 293 253 253 242 248 256 272 276 270 284 289 290 298 282 262 254 239 211 232 253 255 269
30 51 77 95 135 153 285 281 253 231 280 307 306 306 303 303 302 300 305 320 328 328 328 341 341 331 322 307 294 293 286 269 268 270 268 265 278 288 288 283 276 261 258 238 224 250 249 265 289
100 111 123 118 277 169 201 271 309 286 315 315 311 315 317 310 303 301 309 331 336 309 306 300 293 301 294 296 312 309 307 308 299 293 283 279 277 284 288 287 283 274 263 249 232 251 269 275 296